When you browse on this site, cookies collect data to enhance your experience and personalize the content and advertising you see.
Visit our Privacy Policy to learn more. By continuing to use the site, you agree to this use of cookies and data.
  • In Portugal
  • List of Countries
  • For 7 days
  • Water Temperature
  • Weather Map
  • Weather Widgets
  • user-avatar
    Login

    Hourly Weather Sherpur

    Today, 3 June, Wednesday

    Time Temperature Precipitation Wind Pressure Humidity
    00:00 +19°C° 0 mm 2 mps 610 mmHg 36%
    01:00 +18°C° 0 mm 2 mps 609 mmHg 38%
    02:00 +19°C° 0 mm 1 mps 609 mmHg 40%
    03:00 +18°C° 0 mm 1 mps 608 mmHg 40%
    04:00 +16°C° 0 mm 1 mps 608 mmHg 40%
    05:00 +16°C° 0 mm 1 mps 608 mmHg 41%
    06:00 +18°C° 0 mm 1 mps 608 mmHg 35%
    07:00 +20°C° 0 mm 1 mps 609 mmHg 30%
    08:00 +21°C° 0 mm 1 mps 610 mmHg 24%
    09:00 +22°C° 0 mm 1 mps 610 mmHg 22%
    10:00 +24°C° 0 mm 2 mps 611 mmHg 20%
    11:00 +25°C° 0 mm 2 mps 611 mmHg 18%
    12:00 +26°C° 0 mm 2 mps 611 mmHg 18%
    13:00 +26°C° 0 mm 3 mps 611 mmHg 18%
    14:00 +27°C° 0 mm 3 mps 611 mmHg 18%
    15:00 +27°C° 0 mm 4 mps 611 mmHg 18%
    16:00 +27°C° 0 mm 5 mps 611 mmHg 19%
    17:00 +28°C° 0 mm 6 mps 610 mmHg 19%
    18:00 +26°C° 0 mm 5 mps 610 mmHg 22%
    19:00 +25°C° 0 mm 5 mps 610 mmHg 25%
    20:00 +23°C° 0 mm 4 mps 610 mmHg 28%
    21:00 +22°C° 0 mm 3 mps 610 mmHg 31%
    22:00 +21°C° 0 mm 3 mps 610 mmHg 35%
    23:00 +20°C° 0 mm 2 mps 610 mmHg 38%

    Tomorrow, 4 June, Thursday

    Time Temperature Precipitation Wind Pressure Humidity
    00:00 +20°C° 0 mm 2 mps 609 mmHg 40%
    01:00 +20°C° 0 mm 1 mps 609 mmHg 41%
    02:00 +19°C° 0 mm 1 mps 608 mmHg 43%
    03:00 +19°C° 0 mm 1 mps 608 mmHg 43%
    04:00 +18°C° 0 mm 1 mps 608 mmHg 44%
    05:00 +18°C° 0 mm 1 mps 608 mmHg 45%
    06:00 +19°C° 0 mm 1 mps 609 mmHg 39%
    07:00 +21°C° 0 mm 1 mps 609 mmHg 34%
    08:00 +22°C° 0 mm 1 mps 610 mmHg 29%
    09:00 +23°C° 0 mm 1 mps 610 mmHg 26%
    10:00 +25°C° 0 mm 1 mps 611 mmHg 24%
    11:00 +26°C° 0 mm 2 mps 611 mmHg 22%
    12:00 +27°C° 0 mm 2 mps 611 mmHg 21%
    13:00 +28°C° 0 mm 3 mps 611 mmHg 20%
    14:00 +29°C° 0 mm 3 mps 611 mmHg 19%
    15:00 +29°C° 0 mm 4 mps 611 mmHg 18%
    16:00 +29°C° 0 mm 6 mps 611 mmHg 17%
    17:00 +29°C° 0 mm 7 mps 610 mmHg 16%
    18:00 +28°C° 0 mm 6 mps 610 mmHg 18%
    19:00 +26°C° 0 mm 5 mps 610 mmHg 19%
    20:00 +25°C° 0 mm 5 mps 610 mmHg 21%
    21:00 +23°C° 0 mm 4 mps 610 mmHg 24%
    22:00 +22°C° 0 mm 3 mps 610 mmHg 26%
    23:00 +21°C° 0 mm 2 mps 610 mmHg 28%

    Day after tomorrow, 5 June, Friday

    Time Temperature Precipitation Wind Pressure Humidity
    00:00 +20°C° 0 mm 2 mps 609 mmHg 29%
    01:00 +20°C° 0 mm 2 mps 609 mmHg 31%
    02:00 +19°C° 0 mm 2 mps 609 mmHg 32%
    03:00 +18°C° 0 mm 2 mps 608 mmHg 33%
    04:00 +18°C° 0 mm 2 mps 608 mmHg 33%
    05:00 +18°C° 0 mm 1 mps 608 mmHg 34%
    06:00 +20°C° 0 mm 1 mps 609 mmHg 30%
    07:00 +22°C° 0 mm 1 mps 610 mmHg 27%
    08:00 +23°C° 0 mm 1 mps 611 mmHg 23%
    09:00 +25°C° 0 mm 1 mps 611 mmHg 21%
    10:00 +26°C° 0 mm 1 mps 611 mmHg 19%
    11:00 +27°C° 0 mm 2 mps 612 mmHg 18%
    12:00 +29°C° 0 mm 3 mps 612 mmHg 16%
    13:00 +30°C° 0 mm 4 mps 612 mmHg 15%
    14:00 +32°C° 0 mm 6 mps 612 mmHg 14%
    15:00 +32°C° 0 mm 7 mps 611 mmHg 13%
    16:00 +31°C° 0 mm 8 mps 611 mmHg 13%
    17:00 +31°C° 0 mm 9 mps 611 mmHg 13%
    18:00 +28°C° 0 mm 8 mps 610 mmHg 16%
    19:00 +27°C° 0 mm 7 mps 610 mmHg 19%
    20:00 +24°C° 0 mm 6 mps 610 mmHg 22%
    21:00 +23°C° 0 mm 5 mps 610 mmHg 24%
    22:00 +23°C° 0 mm 4 mps 610 mmHg 25%
    23:00 +22°C° 0 mm 3 mps 610 mmHg 27%

    6 June, Saturday

    Time Temperature Precipitation Wind Pressure Humidity
    00:00 +21°C° 0 mm 3 mps 610 mmHg 28%
    01:00 +20°C° 0 mm 2 mps 609 mmHg 30%
    02:00 +20°C° 0 mm 2 mps 609 mmHg 31%
    03:00 +19°C° 0 mm 2 mps 609 mmHg 31%
    04:00 +19°C° 0 mm 2 mps 609 mmHg 32%
    05:00 +18°C° 0 mm 2 mps 609 mmHg 32%
    06:00 +20°C° 0 mm 2 mps 609 mmHg 29%
    07:00 +23°C° 0 mm 2 mps 610 mmHg 25%
    08:00 +25°C° 0 mm 2 mps 611 mmHg 21%
    09:00 +26°C° 0 mm 2 mps 612 mmHg 18%
    10:00 +28°C° 0 mm 3 mps 612 mmHg 16%
    11:00 +29°C° 0 mm 4 mps 612 mmHg 13%
    12:00 +30°C° 0 mm 5 mps 612 mmHg 13%
    13:00 +32°C° 0 mm 7 mps 612 mmHg 12%
    14:00 +32°C° 0 mm 8 mps 612 mmHg 12%
    15:00 +32°C° 0 mm 9 mps 612 mmHg 12%
    16:00 +32°C° 0 mm 9 mps 611 mmHg 13%
    17:00 +31°C° 0 mm 9 mps 611 mmHg 13%
    18:00 +29°C° 0 mm 8 mps 611 mmHg 15%
    19:00 +27°C° 0 mm 7 mps 611 mmHg 17%
    20:00 +25°C° 0 mm 5 mps 610 mmHg 19%
    21:00 +23°C° 0 mm 4 mps 610 mmHg 20%
    22:00 +22°C° 0 mm 4 mps 610 mmHg 21%
    23:00 +21°C° 0 mm 3 mps 610 mmHg 23%

    7 June, Sunday

    Time Temperature Precipitation Wind Pressure Humidity
    00:00 +21°C° 0 mm 3 mps 610 mmHg 25%
    01:00 +20°C° 0 mm 3 mps 610 mmHg 27%
    02:00 +20°C° 0 mm 3 mps 609 mmHg 29%
    03:00 +19°C° 0 mm 2 mps 609 mmHg 31%
    04:00 +18°C° 0 mm 2 mps 609 mmHg 33%
    05:00 +18°C° 0 mm 2 mps 609 mmHg 36%
    06:00 +20°C° 0 mm 2 mps 609 mmHg 32%
    07:00 +21°C° 0 mm 2 mps 610 mmHg 28%
    08:00 +24°C° 0 mm 2 mps 611 mmHg 25%
    09:00 +26°C° 0 mm 2 mps 611 mmHg 22%
    10:00 +27°C° 0 mm 2 mps 612 mmHg 19%
    11:00 +29°C° 0 mm 2 mps 612 mmHg 16%
    12:00 +30°C° 0 mm 4 mps 612 mmHg 15%
    13:00 +32°C° 0 mm 5 mps 612 mmHg 14%
    14:00 +33°C° 0 mm 7 mps 612 mmHg 12%
    15:00 +32°C° 0 mm 7 mps 612 mmHg 13%
    16:00 +32°C° 0 mm 8 mps 611 mmHg 14%
    17:00 +31°C° 0 mm 9 mps 611 mmHg 15%
    18:00 +29°C° 0 mm 8 mps 611 mmHg 17%
    19:00 +27°C° 0 mm 6 mps 610 mmHg 19%
    20:00 +26°C° 0 mm 4 mps 610 mmHg 21%
    21:00 +25°C° 0 mm 4 mps 610 mmHg 24%
    22:00 +24°C° 0 mm 3 mps 610 mmHg 26%
    23:00 +23°C° 0 mm 2 mps 610 mmHg 29%

    8 June, Monday

    Time Temperature Precipitation Wind Pressure Humidity
    00:00 +21°C° 0 mm 2 mps 609 mmHg 31%
    01:00 +20°C° 0 mm 2 mps 609 mmHg 32%
    02:00 +21°C° 0 mm 1 mps 608 mmHg 34%
    03:00 +20°C° 0 mm 1 mps 608 mmHg 35%
    04:00 +20°C° 0 mm 1 mps 608 mmHg 36%
    05:00 +19°C° 0 mm 1 mps 607 mmHg 37%
    06:00 +21°C° 0 mm 1 mps 608 mmHg 33%
    07:00 +23°C° 0 mm 1 mps 609 mmHg 29%
    08:00 +22°C° 0 mm 0 mps 610 mmHg 25%
    09:00 +26°C° 0 mm 1 mps 610 mmHg 23%
    10:00 +27°C° 0 mm 1 mps 610 mmHg 21%
    11:00 +29°C° 0 mm 1 mps 611 mmHg 19%
    12:00 +30°C° 0 mm 1 mps 611 mmHg 18%
    13:00 +31°C° 0 mm 1 mps 611 mmHg 16%
    14:00 +32°C° 0 mm 1 mps 611 mmHg 15%
    15:00 +32°C° 0 mm 2 mps 611 mmHg 15%
    16:00 +33°C° 0 mm 3 mps 610 mmHg 15%
    17:00 +33°C° 0 mm 4 mps 610 mmHg 15%
    18:00 +30°C° 0 mm 4 mps 610 mmHg 19%
    19:00 +29°C° 0 mm 4 mps 610 mmHg 22%
    20:00 +27°C° 0 mm 4 mps 610 mmHg 25%
    21:00 +26°C° 0 mm 3 mps 610 mmHg 28%
    22:00 +25°C° 0 mm 2 mps 610 mmHg 31%
    23:00 +24°C° 0 mm 1 mps 610 mmHg 34%
    Show more